{"data":{"norad_id":60053,"epoch":"2026-05-25T02:48:28.334304Z","epoch_age_seconds":58766,"freshness":"FRESH","line1":"1 60053U 24112R   26145.11699461 -.00000014  00000+0  11653-4 0  9994","line2":"2 60053  53.1604  83.3069 0001298  93.9314 266.1835 15.30194775110299","mean_motion":15.30194775,"eccentricity":0.0001298,"inclination_deg":53.1604,"raan_deg":83.3069,"arg_perigee_deg":93.9314,"mean_anomaly_deg":266.1835,"bstar":1.1653e-5,"rev_number":11029,"period_min":94.105667038368,"perigee_km":474.34110324829,"apogee_km":476.12023749552,"semimajor_km":6853.3676703719,"source":"CELESTRAK","updated_at":"2026-05-25T13:38:19.155232Z"}}